Home   Weather   Fairfield   Past weeks
Flag for USA

Past Weather in Fairfield, Iowa, USA — Yesterday and Last 2 Weeks

Now
48 °F

Mostly cloudy.


Feels Like: 40 °F
Forecast: 53 / 40 °F
Wind: 24 mph from Southwest

Location: Fair Field

Current Time: Oct 22, 2019 at 2:10:00 am

Latest Report: Oct 22, 2019 at 1:15 am


Visibility: 10 mi

Pressure: 29.55 "Hg

Humidity: 87%

Dew Point: 45 °F

Location of FairfieldLocation

Past Weather in Fairfield — Graph

°F

Fairfield Temperature Yesterday

Maximum temperature yesterday: 57 °F (at 7:15 am)
Minimum temperature yesterday: 48 °F (at 10:35 pm)
Average temperature yesterday: 54 °F

High & Low Weather Summary for the Past Weeks

 TemperatureHumidityPressure
High72 °F (Oct 7, 2:35 pm)100% (Oct 7, 2:15 am)30.26 "Hg (Oct 7, 2:15 am)
Low30 °F (Oct 12, 4:15 am)25% (Oct 12, 4:15 pm)29.33 "Hg (Oct 21, 6:15 am)
Average50 °F76%29.93 "Hg
* Reported Oct 7 1:15 am — Oct 22 1:15 am, Fairfield. Weather by CustomWeather, © 2019

Note: Actual official high and low records may vary slightly from our data, if they occured in-between our weather recording intervals... More about our weather records

Advertising

Fairfield Weather History for the Previous 24 Hours

Scroll right to see more
 ConditionsComfort  
Time TempWeatherWind HumidityBarometerVisibility
1:15 am
Tue, Oct 22
48 °FMostly cloudy.24 mph87%29.55 "Hg10 mi
12:35 am48 °FMostly cloudy.23 mph87%29.55 "Hg9 mi
12:15 am48 °FMostly cloudy.18 mph87%29.55 "Hg7 mi
11:55 pm
Mon, Oct 21
48 °FMostly cloudy.25 mph87%29.54 "Hg9 mi
11:35 pm48 °FMostly cloudy.21 mph82%29.54 "Hg10 mi
11:15 pm48 °FMostly cloudy.17 mph82%29.54 "Hg10 mi
10:55 pm48 °FMostly cloudy.18 mph76%29.54 "Hg10 mi
10:35 pm48 °FOvercast.21 mph76%29.54 "Hg10 mi
10:15 pm50 °FMostly cloudy.24 mph76%29.54 "Hg10 mi
9:55 pm50 °FMostly cloudy.24 mph76%29.53 "Hg10 mi
9:35 pm52 °FMostly cloudy.24 mph72%29.51 "Hg10 mi
9:15 pm52 °FMostly cloudy.22 mph77%29.51 "Hg10 mi
8:55 pm50 °FOvercast.21 mph82%29.51 "Hg10 mi
8:35 pm50 °FPartly cloudy.21 mph82%29.51 "Hg10 mi
8:15 pm52 °FMostly cloudy.20 mph77%29.52 "Hg10 mi
7:55 pm52 °FMostly cloudy.22 mph77%29.52 "Hg10 mi
7:35 pm52 °FOvercast.16 mph72%29.52 "Hg10 mi
7:15 pm52 °FOvercast.16 mph72%29.51 "Hg10 mi
6:55 pm52 °FMostly cloudy.16 mph72%29.51 "Hg10 mi
6:35 pm52 °FOvercast.18 mph67%29.50 "Hg10 mi
6:15 pm52 °FMostly cloudy.17 mph67%29.49 "Hg10 mi
5:55 pm52 °FOvercast.17 mph67%29.49 "Hg10 mi
5:35 pm52 °FCloudy.18 mph67%29.48 "Hg10 mi
5:15 pm52 °FOvercast.18 mph67%29.48 "Hg10 mi
4:35 pm52 °FOvercast.24 mph67%29.47 "Hg10 mi
4:15 pm52 °FOvercast.23 mph67%29.46 "Hg10 mi
3:55 pm54 °FOvercast.24 mph63%29.45 "Hg10 mi
3:35 pm52 °FOvercast.21 mph67%29.45 "Hg10 mi
3:15 pm52 °FOvercast.21 mph67%29.44 "Hg10 mi
2:55 pm52 °FOvercast.21 mph67%29.43 "Hg10 mi
2:35 pm52 °FOvercast.26 mph72%29.43 "Hg10 mi
2:15 pm54 °FOvercast.24 mph67%29.42 "Hg10 mi
1:55 pm55 °FOvercast.22 mph67%29.41 "Hg10 mi
1:35 pm55 °FPartly sunny.25 mph67%29.41 "Hg10 mi
1:15 pm57 °FScattered clouds.24 mph63%29.41 "Hg10 mi
12:55 pm55 °FPassing clouds.18 mph67%29.41 "Hg10 mi
12:35 pm55 °FPartly sunny.22 mph67%29.40 "Hg10 mi
12:15 pm55 °FScattered clouds.22 mph67%29.40 "Hg10 mi
11:55 am55 °FSunny.21 mph67%29.39 "Hg10 mi
11:35 am55 °FSunny.20 mph63%29.39 "Hg10 mi
11:15 am55 °FPassing clouds.25 mph63%29.39 "Hg10 mi
10:55 am57 °FSunny.21 mph63%29.38 "Hg10 mi
10:35 am55 °FSunny.14 mph72%29.37 "Hg10 mi
10:15 am55 °FSunny.14 mph77%29.37 "Hg10 mi
9:55 am55 °FSunny.14 mph82%29.37 "Hg10 mi
9:35 am55 °FPartly sunny.16 mph88%29.37 "Hg10 mi
9:15 am55 °FBroken clouds.13 mph94%29.37 "Hg10 mi
8:55 am55 °FCloudy.14 mph100%29.37 "Hg7 mi
8:35 am55 °FFog.12 mph100%29.36 "Hg2 mi
8:15 am57 °FLow clouds.15 mph100%29.36 "HgN/A
7:55 am57 °FLow clouds.13 mph100%29.35 "Hg7 mi
7:35 am57 °FLow clouds.14 mph100%29.35 "Hg9 mi
7:15 am57 °FLow clouds.20 mph100%29.35 "Hg10 mi
6:55 am55 °FLow clouds.14 mph100%29.35 "Hg7 mi
6:35 am55 °FFog.13 mph100%29.34 "Hg5 mi
6:15 am55 °FFog.16 mph100%29.33 "Hg6 mi
5:55 am55 °FFog.16 mph100%29.35 "Hg6 mi
5:35 am55 °FPartly cloudy.17 mph100%29.35 "Hg10 mi
5:15 am55 °FFog.18 mph100%29.39 "Hg5 mi
4:35 am55 °FFog.13 mph100%29.50 "Hg5 mi
3:55 am55 °FFog.12 mph94%29.54 "Hg4 mi
3:35 am55 °FMostly cloudy.8 mph94%29.56 "Hg10 mi
3:15 am55 °FOvercast.13 mph94%29.55 "Hg10 mi
2:55 am55 °FOvercast.14 mph94%29.56 "Hg10 mi
2:35 am55 °FMostly cloudy.14 mph94%29.57 "Hg10 mi
2:15 am55 °FMostly cloudy.13 mph94%29.59 "Hg10 mi
Weather by CustomWeather, © 2019

See weather overview